| time (UTC) | temp F | wind direction | speed MPH | gust MPH | rain 1hr in | rain 24hr in | rain mn in | humidity % | barometer mb |
| 20260906221918 | 89 | 206 | 2.0 | 2.0 | 0.00 | 0.04 | 0.04 | 59 | 1012.1 |
| 20260906221417 | 90 | 193 | 2.0 | 2.0 | 0.00 | 0.04 | 0.04 | 59 | 1012.1 |
| 20260906220913 | 90 | 211 | 2.0 | 5.0 | 0.00 | 0.04 | 0.04 | 60 | 1012.2 |
| 20260906220408 | 89 | 194 | 1.0 | 2.0 | 0.00 | 0.04 | 0.04 | 60 | 1012.1 |
| 20260906215907 | 90 | 338 | 1.0 | 2.0 | 0.00 | 0.04 | 0.04 | 61 | 1012.2 |
| 20260906215402 | 89 | 201 | 0.0 | 1.0 | 0.00 | 0.04 | 0.04 | 61 | 1012.1 |
| 20260906214900 | 89 | 194 | 2.0 | 3.0 | 0.00 | 0.04 | 0.04 | 61 | 1012.2 |
| 20260906214359 | 89 | 206 | 3.0 | 3.0 | 0.00 | 0.04 | 0.04 | 63 | 1012.5 |
| 20260906213859 | 89 | 205 | 0.0 | 1.0 | 0.00 | 0.04 | 0.04 | 67 | 1012.4 |
| 20260906213353 | 88 | 202 | 2.0 | 2.0 | 0.00 | 0.04 | 0.04 | 69 | 1012.3 |
| 20260906212851 | 88 | 192 | 1.0 | 2.0 | 0.00 | 0.04 | 0.04 | 69 | 1012.5 |
| 20260906212346 | 87 | 193 | 0.0 | 1.0 | 0.00 | 0.04 | 0.04 | 70 | 1012.5 |
| 20260906211846 | 87 | 194 | 2.0 | 3.0 | 0.00 | 0.04 | 0.04 | 70 | 1012.5 |
| 20260906211341 | 87 | 204 | 2.0 | 3.0 | 0.00 | 0.04 | 0.04 | 71 | 1012.7 |
| 20260906210836 | 86 | 182 | 1.0 | 2.0 | 0.00 | 0.04 | 0.04 | 73 | 1012.9 |
| 20260906210331 | 85 | 193 | 1.0 | 2.0 | 0.00 | 0.04 | 0.04 | 76 | 1012.8 |
| 20260906205826 | 85 | 197 | 2.0 | 2.0 | 0.00 | 0.04 | 0.04 | 77 | 1012.9 |
| 20260906205323 | 85 | 209 | 2.0 | 2.0 | 0.00 | 0.04 | 0.04 | 79 | 1012.9 |
| 20260906204818 | 84 | 204 | 2.0 | 2.0 | 0.00 | 0.04 | 0.04 | 80 | 1012.8 |
| 20260906204317 | 84 | 210 | 2.0 | 3.0 | 0.00 | 0.04 | 0.04 | 81 | 1012.9 |
| 20260906203816 | 83 | 185 | 0.0 | 1.0 | 0.00 | 0.04 | 0.04 | 84 | 1013.0 |
| 20260906203312 | 83 | 214 | 1.0 | 2.0 | 0.00 | 0.04 | 0.04 | 84 | 1012.8 |
| 20260906202809 | 83 | 207 | 0.0 | 0.0 | 0.00 | 0.04 | 0.04 | 83 | 1013.0 |
| 20260906202308 | 83 | 204 | 1.0 | 1.0 | 0.00 | 0.04 | 0.04 | 82 | 1013.0 |
| 20260906201803 | 82 | 194 | 0.0 | 0.0 | 0.00 | 0.04 | 0.04 | 82 | 1012.9 |
| 20260906201303 | 83 | 196 | 1.0 | 1.0 | 0.00 | 0.04 | 0.04 | 84 | 1013.0 |
| 20260906200758 | 81 | 196 | 0.0 | 0.0 | 0.05 | 0.04 | 0.04 | 88 | 1013.1 |
| 20260906200254 | 80 | 201 | 0.0 | 1.0 | 0.05 | 0.04 | 0.04 | 89 | 1013.2 |
| 20260906195749 | 79 | 202 | 0.0 | 0.0 | 0.00 | 0.03 | 0.03 | 91 | 1013.5 |
| 20260906195245 | 78 | 198 | 0.0 | 0.0 | 0.00 | 0.03 | 0.03 | 92 | 1013.3 |
| 20260906194741 | 77 | 198 | 0.0 | 1.0 | 0.00 | 0.03 | 0.03 | 94 | 1013.3 |
| 20260906194237 | 76 | 191 | 2.0 | 2.0 | 0.00 | 0.03 | 0.03 | 94 | 1013.2 |
| 20260906193731 | 76 | 203 | 0.0 | 1.0 | 0.00 | 0.03 | 0.03 | 95 | 1013.4 |
| 20260906193226 | 76 | 202 | 1.0 | 2.0 | 0.00 | 0.03 | 0.03 | 95 | 1013.7 |
| 20260906192722 | 76 | 203 | 1.0 | 1.0 | 0.00 | 0.03 | 0.03 | 95 | 1013.5 |
| 20260906192216 | 76 | 197 | 1.0 | 2.0 | 0.00 | 0.03 | 0.03 | 94 | 1013.8 |
| 20260906191710 | 76 | 193 | 5.0 | 6.0 | 0.00 | 0.03 | 0.03 | 93 | 1013.7 |
| 20260906191210 | 76 | 191 | 4.0 | 7.0 | 0.14 | 0.03 | 0.03 | 93 | 1013.7 |
| 20260906190705 | 77 | 191 | 3.0 | 3.0 | 0.19 | 0.03 | 0.03 | 92 | 1014.0 |
| 20260906190159 | 78 | 195 | 5.0 | 7.0 | 0.05 | 0.01 | 0.01 | 89 | 1014.0 |
| 20260906185658 | 80 | 192 | 7.0 | 11.0 | 0.00 | 0.00 | 0.00 | 84 | 1014.2 |
| 20260906185157 | 82 | 218 | 3.0 | 5.0 | 0.00 | 0.00 | 0.00 | 79 | 1014.0 |
| 20260906184651 | 82 | 196 | 2.0 | 2.0 | 0.00 | 0.00 | 0.00 | 77 | 1013.8 |
| 20260906184148 | 84 | 216 | 2.0 | 2.0 | 0.00 | 0.00 | 0.00 | 74 | 1013.7 |
| 20260906183643 | 87 | 212 | 2.0 | 2.0 | 0.00 | 0.00 | 0.00 | 69 | 1013.6 |
| 20260906183139 | 89 | 196 | 1.0 | 1.0 | 0.00 | 0.00 | 0.00 | 61 | 1013.7 |
| 20260906182639 | 89 | 189 | 3.0 | 3.0 | 0.00 | 0.00 | 0.00 | 61 | 1014.0 |
| 20260906182135 | 93 | 216 | 2.0 | 2.0 | 0.00 | 0.00 | 0.00 | 55 | 1014.1 |
| 20260906181630 | 96 | 213 | 0.0 | 1.0 | 0.00 | 0.00 | 0.00 | 49 | 1013.8 |
| 20260906181126 | 96 | 210 | 0.0 | 0.0 | 0.00 | 0.00 | 0.00 | 49 | 1014.1 |
| 20260906180621 | 96 | 164 | 1.0 | 2.0 | 0.00 | 0.00 | 0.00 | 48 | 1013.8 |
| 20260906180121 | 97 | 193 | 2.0 | 2.0 | 0.00 | 0.00 | 0.00 | 51 | 1014.1 |
| 20260906175619 | 97 | 200 | 1.0 | 2.0 | 0.00 | 0.00 | 0.00 | 50 | 1013.8 |
| 20260906175114 | 94 | 250 | 1.0 | 2.0 | 0.00 | 0.00 | 0.00 | 52 | 1014.2 |
| 20260906174612 | 95 | 309 | 0.0 | 1.0 | 0.00 | 0.00 | 0.00 | 52 | 1014.5 |
| 20260906174107 | 96 | 198 | 0.0 | 1.0 | 0.00 | 0.00 | 0.00 | 49 | 1014.5 |
| 20260906173602 | 95 | 198 | 1.0 | 1.0 | 0.00 | 0.00 | 0.00 | 51 | 1014.4 |
| 20260906173058 | 98 | 140 | 3.0 | 3.0 | 0.00 | 0.00 | 0.00 | 50 | 1014.5 |
| 20260906172552 | 96 | 209 | 1.0 | 2.0 | 0.00 | 0.00 | 0.00 | 49 | 1014.8 |
| 20260906172047 | 94 | 199 | 1.0 | 2.0 | 0.00 | 0.00 | 0.00 | 53 | 1014.9 |
| 20260906171542 | 94 | 154 | 2.0 | 2.0 | 0.00 | 0.00 | 0.00 | 54 | 1014.9 |
| 20260906171038 | 95 | 157 | 2.0 | 2.0 | 0.00 | 0.00 | 0.00 | 53 | 1014.8 |
| 20260906170533 | 95 | 171 | 2.0 | 3.0 | 0.00 | 0.00 | 0.00 | 53 | 1015.0 |
| 20260906170032 | 95 | 196 | 0.0 | 1.0 | 0.00 | 0.00 | 0.00 | 52 | 1014.8 |
| 20260906165529 | 93 | 195 | 2.0 | 3.0 | 0.00 | 0.00 | 0.00 | 57 | 1015.1 |
| 20260906165024 | 91 | 198 | 0.0 | 0.0 | 0.00 | 0.00 | 0.00 | 60 | 1014.9 |
| 20260906164523 | 91 | 202 | 0.0 | 0.0 | 0.00 | 0.00 | 0.00 | 60 | 1015.2 |
| 20260906164019 | 91 | 196 | 1.0 | 2.0 | 0.00 | 0.00 | 0.00 | 59 | 1015.1 |
| 20260906163515 | 92 | 198 | 2.0 | 3.0 | 0.00 | 0.00 | 0.00 | 57 | 1015.0 |
| 20260906163010 | 91 | 194 | 1.0 | 1.0 | 0.00 | 0.00 | 0.00 | 61 | 1015.2 |
| 20260906162507 | 92 | 200 | 0.0 | 1.0 | 0.00 | 0.00 | 0.00 | 59 | 1015.1 |
| 20260906162002 | 90 | 187 | 1.0 | 1.0 | 0.00 | 0.00 | 0.00 | 61 | 1015.2 |
| 20260906161502 | 90 | 207 | 0.0 | 0.0 | 0.00 | 0.00 | 0.00 | 62 | 1015.2 |
| 20260906161001 | 89 | 200 | 0.0 | 1.0 | 0.00 | 0.00 | 0.00 | 63 | 1015.2 |
| 20260906160455 | 91 | 188 | 1.0 | 1.0 | 0.00 | 0.00 | 0.00 | 61 | 1015.0 |
| 20260906155953 | 92 | 200 | 0.0 | 1.0 | 0.00 | 0.00 | 0.00 | 62 | 1015.2 |
| 20260906155452 | 90 | 191 | 1.0 | 2.0 | 0.00 | 0.00 | 0.00 | 61 | 1015.1 |
| 20260906154948 | 90 | 162 | 3.0 | 3.0 | 0.00 | 0.00 | 0.00 | 63 | 1015.0 |
| 20260906154443 | 90 | 209 | 0.0 | 1.0 | 0.00 | 0.00 | 0.00 | 63 | 1014.8 |
| 20260906153941 | 90 | 201 | 1.0 | 1.0 | 0.00 | 0.00 | 0.00 | 63 | 1014.9 |
| 20260906153440 | 89 | 224 | 1.0 | 1.0 | 0.00 | 0.00 | 0.00 | 64 | 1014.9 |
| 20260906152935 | 88 | 216 | 0.0 | 0.0 | 0.00 | 0.00 | 0.00 | 66 | 1015.1 |
| 20260906152430 | 88 | 261 | 2.0 | 2.0 | 0.00 | 0.00 | 0.00 | 67 | 1014.9 |
| 20260906151929 | 89 | 222 | 1.0 | 1.0 | 0.00 | 0.00 | 0.00 | 65 | 1015.0 |
| 20260906151425 | 88 | 225 | 1.0 | 1.0 | 0.00 | 0.00 | 0.00 | 65 | 1014.8 |
| 20260906150920 | 88 | 212 | 1.0 | 2.0 | 0.00 | 0.00 | 0.00 | 67 | 1015.1 |
| 20260906150415 | 88 | 215 | 2.0 | 3.0 | 0.00 | 0.00 | 0.00 | 66 | 1015.0 |
| 20260906145915 | 88 | 209 | 0.0 | 1.0 | 0.00 | 0.00 | 0.00 | 68 | 1014.8 |
| 20260906145414 | 86 | 196 | 1.0 | 1.0 | 0.00 | 0.00 | 0.00 | 71 | 1014.8 |
| 20260906144909 | 86 | 212 | 1.0 | 1.0 | 0.00 | 0.00 | 0.00 | 71 | 1014.7 |
| 20260906144403 | 86 | 231 | 2.0 | 2.0 | 0.00 | 0.00 | 0.00 | 71 | 1014.8 |
| 20260906143859 | 86 | 205 | 1.0 | 1.0 | 0.00 | 0.00 | 0.00 | 74 | 1014.8 |
| 20260906143354 | 85 | 229 | 0.0 | 1.0 | 0.00 | 0.00 | 0.00 | 76 | 1014.6 |
| 20260906142850 | 84 | 218 | 1.0 | 1.0 | 0.00 | 0.00 | 0.00 | 77 | 1014.5 |
| 20260906142344 | 84 | 206 | 1.0 | 1.0 | 0.00 | 0.00 | 0.00 | 78 | 1014.7 |
| 20260906141844 | 84 | 216 | 1.0 | 1.0 | 0.00 | 0.00 | 0.00 | 78 | 1014.6 |
| 20260906141339 | 84 | 234 | 1.0 | 2.0 | 0.00 | 0.00 | 0.00 | 76 | 1014.6 |
| 20260906140838 | 84 | 224 | 0.0 | 0.0 | 0.00 | 0.00 | 0.00 | 78 | 1014.6 |
| 20260906140333 | 83 | 217 | 0.0 | 0.0 | 0.00 | 0.00 | 0.00 | 79 | 1014.8 |
| 20260906135830 | 83 | 211 | 0.0 | 0.0 | 0.00 | 0.00 | 0.00 | 79 | 1014.4 |
| 20260906135320 | 83 | 214 | 0.0 | 1.0 | 0.00 | 0.00 | 0.00 | 79 | 1014.3 |
| 20260906134815 | 82 | 207 | 0.0 | 0.0 | 0.00 | 0.00 | 0.00 | 80 | 1014.5 |
| 20260906134310 | 82 | 200 | 2.0 | 2.0 | 0.00 | 0.00 | 0.00 | 79 | 1014.4 |
| 20260906133806 | 82 | 221 | 0.0 | 1.0 | 0.00 | 0.00 | 0.00 | 79 | 1014.5 |
| 20260906133301 | 82 | 225 | 0.0 | 0.0 | 0.00 | 0.00 | 0.00 | 79 | 1014.5 |
| 20260906132757 | 81 | 218 | 0.0 | 0.0 | 0.00 | 0.00 | 0.00 | 79 | 1014.2 |
| 20260906132252 | 80 | 210 | 0.0 | 0.0 | 0.00 | 0.00 | 0.00 | 81 | 1014.3 |
| 20260906131748 | 79 | 210 | 0.0 | 0.0 | 0.00 | 0.00 | 0.00 | 82 | 1014.4 |
| 20260906131248 | 78 | 210 | 0.0 | 0.0 | 0.00 | 0.00 | 0.00 | 82 | 1014.1 |
| 20260906130743 | 78 | 209 | 0.0 | 0.0 | 0.00 | 0.00 | 0.00 | 83 | 1013.8 |
| 20260906130238 | 77 | 209 | 0.0 | 0.0 | 0.00 | 0.00 | 0.00 | 85 | 1014.0 |
| 20260906125737 | 76 | 210 | 0.0 | 1.0 | 0.00 | 0.00 | 0.00 | 85 | 1014.1 |
| 20260906125235 | 75 | 196 | 0.0 | 1.0 | 0.00 | 0.00 | 0.00 | 87 | 1014.0 |
| 20260906124730 | 75 | 197 | 0.0 | 1.0 | 0.00 | 0.00 | 0.00 | 86 | 1013.7 |
| 20260906124226 | 75 | 195 | 0.0 | 1.0 | 0.00 | 0.00 | 0.00 | 86 | 1013.6 |
| 20260906123724 | 75 | 200 | 0.0 | 1.0 | 0.00 | 0.00 | 0.00 | 86 | 1013.7 |
| 20260906123220 | 75 | 202 | 1.0 | 1.0 | 0.00 | 0.00 | 0.00 | 86 | 1013.7 |
| 20260906122719 | 75 | 208 | 0.0 | 0.0 | 0.00 | 0.00 | 0.00 | 87 | 1013.6 |
| 20260906122215 | 74 | 214 | 0.0 | 0.0 | 0.00 | 0.00 | 0.00 | 88 | 1013.5 |
| 20260906121711 | 75 | 214 | 0.0 | 0.0 | 0.00 | 0.00 | 0.00 | 88 | 1013.4 |
| 20260906121207 | 75 | 221 | 0.0 | 0.0 | 0.00 | 0.00 | 0.00 | 88 | 1013.4 |
| 20260906120703 | 75 | 215 | 0.0 | 0.0 | 0.00 | 0.00 | 0.00 | 88 | 1013.3 |
| 20260906120159 | 75 | 215 | 0.0 | 0.0 | 0.00 | 0.00 | 0.00 | 88 | 1013.4 |
| 20260906115654 | 75 | 189 | 0.0 | 1.0 | 0.00 | 0.00 | 0.00 | 87 | 1013.5 |
| 20260906115149 | 75 | 190 | 1.0 | 1.0 | 0.00 | 0.00 | 0.00 | 86 | 1013.0 |
| 20260906114648 | 76 | 190 | 0.0 | 0.0 | 0.00 | 0.00 | 0.00 | 85 | 1012.8 |
| 20260906114143 | 76 | 190 | 1.0 | 1.0 | 0.00 | 0.00 | 0.00 | 84 | 1012.6 |
| 20260906113638 | 77 | 190 | 0.0 | 1.0 | 0.00 | 0.00 | 0.00 | 84 | 1012.7 |
| 20260906113138 | 77 | 191 | 1.0 | 1.0 | 0.00 | 0.00 | 0.00 | 84 | 1012.7 |
| 20260906112637 | 77 | 190 | 1.0 | 1.0 | 0.00 | 0.00 | 0.00 | 84 | 1012.7 |
| 20260906112135 | 76 | 192 | 1.0 | 1.0 | 0.00 | 0.00 | 0.00 | 85 | 1012.6 |
| 20260906111634 | 76 | 193 | 1.0 | 1.0 | 0.00 | 0.00 | 0.00 | 86 | 1012.5 |
| 20260906111129 | 75 | 193 | 0.0 | 0.0 | 0.00 | 0.00 | 0.00 | 86 | 1012.2 |
| 20260906110624 | 75 | 193 | 0.0 | 0.0 | 0.00 | 0.00 | 0.00 | 86 | 1012.6 |
| 20260906110118 | 75 | 193 | 0.0 | 0.0 | 0.00 | 0.00 | 0.00 | 86 | 1012.5 |
| 20260906105612 | 76 | 193 | 0.0 | 0.0 | 0.00 | 0.00 | 0.00 | 85 | 1012.6 |
| 20260906105109 | 76 | 193 | 0.0 | 0.0 | 0.00 | 0.00 | 0.00 | 84 | 1012.3 |
| 20260906104608 | 76 | 193 | 0.0 | 0.0 | 0.00 | 0.00 | 0.00 | 84 | 1012.2 |
| 20260906104102 | 77 | 193 | 0.0 | 0.0 | 0.00 | 0.00 | 0.00 | 83 | 1012.3 |
| 20260906103600 | 77 | 193 | 1.0 | 1.0 | 0.00 | 0.00 | 0.00 | 84 | 1012.2 |
| 20260906103056 | 76 | 193 | 1.0 | 1.0 | 0.00 | 0.00 | 0.00 | 84 | 1012.1 |
| 20260906102555 | 76 | 194 | 1.0 | 1.0 | 0.00 | 0.00 | 0.00 | 84 | 1012.3 |
| 20260906102051 | 77 | 194 | 0.0 | 1.0 | 0.00 | 0.00 | 0.00 | 83 | 1012.2 |
| 20260906101545 | 77 | 195 | 1.0 | 1.0 | 0.00 | 0.00 | 0.00 | 83 | 1012.2 |
| 20260906101039 | 77 | 196 | 0.0 | 1.0 | 0.00 | 0.00 | 0.00 | 83 | 1012.0 |
| 20260906100535 | 75 | 197 | 1.0 | 1.0 | 0.00 | 0.00 | 0.00 | 85 | 1011.9 |
| 20260906100030 | 75 | 199 | 0.0 | 0.0 | 0.00 | 0.00 | 0.00 | 85 | 1012.3 |
| 20260906095524 | 75 | 199 | 0.0 | 0.0 | 0.00 | 0.00 | 0.00 | 85 | 1012.2 |
| 20260906095020 | 75 | 199 | 0.0 | 0.0 | 0.00 | 0.00 | 0.00 | 85 | 1012.1 |
| 20260906094519 | 76 | 199 | 0.0 | 0.0 | 0.00 | 0.00 | 0.00 | 85 | 1012.1 |
| 20260906094015 | 76 | 199 | 0.0 | 0.0 | 0.00 | 0.00 | 0.00 | 84 | 1012.3 |
| 20260906093511 | 76 | 199 | 0.0 | 0.0 | 0.00 | 0.00 | 0.00 | 83 | 1012.2 |
| 20260906093011 | 77 | 199 | 0.0 | 0.0 | 0.00 | 0.00 | 0.00 | 82 | 1012.2 |
| 20260906092505 | 77 | 200 | 0.0 | 0.0 | 0.00 | 0.00 | 0.00 | 83 | 1012.6 |
| 20260906092001 | 77 | 200 | 0.0 | 0.0 | 0.00 | 0.00 | 0.00 | 83 | 1012.5 |
| 20260906091456 | 76 | 200 | 1.0 | 1.0 | 0.00 | 0.00 | 0.00 | 84 | 1012.4 |
| 20260906090953 | 76 | 202 | 0.0 | 1.0 | 0.00 | 0.00 | 0.00 | 84 | 1012.5 |
| 20260906090448 | 76 | 198 | 1.0 | 1.0 | 0.00 | 0.00 | 0.00 | 85 | 1012.5 |
| 20260906085947 | 75 | 201 | 0.0 | 1.0 | 0.00 | 0.00 | 0.00 | 86 | 1012.5 |
| 20260906085447 | 75 | 202 | 0.0 | 0.0 | 0.00 | 0.00 | 0.00 | 85 | 1012.5 |
| 20260906084946 | 76 | 202 | 0.0 | 0.0 | 0.00 | 0.00 | 0.00 | 85 | 1012.4 |
| 20260906084441 | 76 | 202 | 0.0 | 0.0 | 0.00 | 0.00 | 0.00 | 84 | 1012.4 |
| 20260906083940 | 76 | 202 | 0.0 | 0.0 | 0.00 | 0.00 | 0.00 | 83 | 1012.4 |
| 20260906083436 | 77 | 201 | 0.0 | 0.0 | 0.00 | 0.00 | 0.00 | 83 | 1012.5 |
| 20260906082935 | 78 | 202 | 0.0 | 0.0 | 0.00 | 0.00 | 0.00 | 82 | 1012.5 |
| 20260906082430 | 78 | 202 | 0.0 | 0.0 | 0.00 | 0.00 | 0.00 | 80 | 1012.6 |
| 20260906081926 | 79 | 200 | 0.0 | 0.0 | 0.00 | 0.00 | 0.00 | 79 | 1012.7 |
| 20260906081421 | 79 | 202 | 0.0 | 1.0 | 0.00 | 0.00 | 0.00 | 79 | 1012.7 |
| 20260906080917 | 80 | 206 | 0.0 | 0.0 | 0.00 | 0.00 | 0.00 | 78 | 1012.7 |
| 20260906080414 | 80 | 210 | 0.0 | 1.0 | 0.00 | 0.00 | 0.00 | 78 | 1012.8 |
| 20260906075912 | 80 | 204 | 0.0 | 1.0 | 0.00 | 0.00 | 0.00 | 78 | 1012.8 |
| 20260906075408 | 80 | 204 | 0.0 | 1.0 | 0.00 | 0.00 | 0.00 | 77 | 1012.8 |
| 20260906074903 | 80 | 221 | 0.0 | 1.0 | 0.00 | 0.00 | 0.00 | 77 | 1013.0 |
| 20260906074403 | 78 | 198 | 1.0 | 1.0 | 0.00 | 0.00 | 0.00 | 81 | 1013.3 |
| 20260906073901 | 78 | 200 | 0.0 | 0.0 | 0.00 | 0.00 | 0.00 | 82 | 1013.0 |
| 20260906073356 | 78 | 200 | 0.0 | 0.0 | 0.00 | 0.00 | 0.00 | 82 | 1013.2 |
| 20260906072853 | 78 | 200 | 0.0 | 0.0 | 0.00 | 0.00 | 0.00 | 81 | 1013.1 |
| 20260906072348 | 78 | 200 | 0.0 | 0.0 | 0.00 | 0.00 | 0.00 | 80 | 1013.5 |
| 20260906071844 | 78 | 200 | 0.0 | 0.0 | 0.00 | 0.00 | 0.00 | 79 | 1013.3 |
| 20260906071339 | 79 | 200 | 0.0 | 0.0 | 0.00 | 0.00 | 0.00 | 78 | 1013.2 |
| 20260906070836 | 80 | 200 | 0.0 | 1.0 | 0.00 | 0.00 | 0.00 | 77 | 1013.3 |
| 20260906070331 | 81 | 200 | 0.0 | 1.0 | 0.00 | 0.00 | 0.00 | 75 | 1013.3 |
| 20260906065826 | 81 | 202 | 0.0 | 1.0 | 0.00 | 0.00 | 0.00 | 75 | 1013.5 |
| 20260906065321 | 81 | 204 | 0.0 | 1.0 | 0.00 | 0.00 | 0.00 | 74 | 1013.4 |
| 20260906064817 | 81 | 205 | 0.0 | 0.0 | 0.00 | 0.00 | 0.00 | 74 | 1013.6 |
| 20260906064313 | 81 | 204 | 0.0 | 1.0 | 0.00 | 0.00 | 0.00 | 73 | 1013.6 |
| 20260906063807 | 82 | 211 | 1.0 | 2.0 | 0.00 | 0.00 | 0.00 | 73 | 1013.7 |
| 20260906063303 | 82 | 214 | 1.0 | 1.0 | 0.00 | 0.00 | 0.00 | 72 | 1013.6 |
| 20260906062758 | 81 | 209 | 0.0 | 1.0 | 0.00 | 0.00 | 0.00 | 73 | 1013.6 |
| 20260906062256 | 79 | 204 | 0.0 | 0.0 | 0.00 | 0.00 | 0.00 | 76 | 1013.7 |
| 20260906061752 | 79 | 211 | 0.0 | 0.0 | 0.00 | 0.00 | 0.00 | 76 | 1013.3 |
| 20260906061249 | 80 | 215 | 0.0 | 0.0 | 0.00 | 0.00 | 0.00 | 76 | 1013.8 |
| 20260906060743 | 80 | 215 | 0.0 | 0.0 | 0.00 | 0.00 | 0.00 | 75 | 1013.7 |
| 20260906060241 | 81 | 217 | 0.0 | 0.0 | 0.00 | 0.00 | 0.00 | 74 | 1013.6 |
| 20260906055736 | 82 | 202 | 0.0 | 0.0 | 0.00 | 0.00 | 0.00 | 73 | 1013.8 |
| 20260906055232 | 82 | 203 | 0.0 | 1.0 | 0.00 | 0.00 | 0.00 | 71 | 1013.8 |
| 20260906054727 | 82 | 200 | 1.0 | 1.0 | 0.00 | 0.00 | 0.00 | 71 | 1014.0 |
| 20260906054222 | 83 | 200 | 0.0 | 1.0 | 0.00 | 0.00 | 0.00 | 70 | 1013.6 |
| 20260906053719 | 83 | 202 | 1.0 | 1.0 | 0.00 | 0.00 | 0.00 | 70 | 1014.0 |
| 20260906053214 | 84 | 210 | 0.0 | 1.0 | 0.00 | 0.00 | 0.00 | 69 | 1013.6 |
| 20260906052709 | 84 | 208 | 0.0 | 1.0 | 0.00 | 0.00 | 0.00 | 69 | 1013.8 |
| 20260906052205 | 84 | 211 | 0.0 | 0.0 | 0.00 | 0.00 | 0.00 | 69 | 1013.6 |
| 20260906051702 | 84 | 208 | 0.0 | 1.0 | 0.00 | 0.00 | 0.00 | 69 | 1013.7 |
| 20260906051201 | 84 | 202 | 1.0 | 2.0 | 0.00 | 0.00 | 0.00 | 69 | 1014.0 |
| 20260906050657 | 84 | 187 | 1.0 | 2.0 | 0.00 | 0.00 | 0.00 | 69 | 1013.7 |
| 20260906050152 | 84 | 231 | 0.0 | 1.0 | 0.00 | 0.00 | 0.00 | 69 | 1013.7 |
| 20260906045650 | 84 | 196 | 1.0 | 2.0 | 0.00 | 0.00 | 0.00 | 69 | 1014.2 |
| 20260906045145 | 85 | 19 | 2.0 | 3.0 | 0.00 | 0.00 | 0.00 | 69 | 1013.8 |
| 20260906044641 | 85 | 215 | 1.0 | 1.0 | 0.00 | 0.00 | 0.00 | 69 | 1013.7 |
| 20260906044136 | 85 | 202 | 0.0 | 1.0 | 0.00 | 0.00 | 0.00 | 68 | 1013.5 |
| 20260906043633 | 85 | 210 | 1.0 | 2.0 | 0.00 | 0.00 | 0.00 | 68 | 1013.8 |
| 20260906043128 | 85 | 221 | 0.0 | 1.0 | 0.00 | 0.00 | 0.00 | 68 | 1013.8 |
| 20260906042627 | 86 | 211 | 0.0 | 1.0 | 0.00 | 0.00 | 0.00 | 67 | 1014.0 |
| 20260906042121 | 86 | 216 | 1.0 | 1.0 | 0.00 | 0.00 | 0.00 | 67 | 1014.0 |
| 20260906041618 | 85 | 223 | 2.0 | 3.0 | 0.00 | 0.00 | 0.00 | 68 | 1013.8 |
| 20260906041112 | 86 | 222 | 1.0 | 1.0 | 0.00 | 0.00 | 0.00 | 67 | 1013.6 |
| 20260906040608 | 86 | 192 | 1.0 | 2.0 | 0.00 | 0.00 | 0.00 | 66 | 1013.6 |
| 20260906035558 | 86 | 223 | 0.0 | 1.0 | 0.00 | 0.00 | 0.00 | 66 | 1013.2 |
| 20260906035054 | 86 | 295 | 1.0 | 2.0 | 0.00 | 0.00 | 0.00 | 67 | 1013.5 |
| 20260906034548 | 86 | 285 | 1.0 | 1.0 | 0.00 | 0.00 | 0.00 | 66 | 1013.4 |
| 20260906034043 | 86 | 222 | 1.0 | 2.0 | 0.00 | 0.00 | 0.00 | 65 | 1013.5 |
| 20260906033538 | 87 | 207 | 2.0 | 3.0 | 0.00 | 0.00 | 0.00 | 64 | 1013.3 |
| 20260906033034 | 87 | 209 | 0.0 | 1.0 | 0.00 | 0.00 | 0.00 | 64 | 1013.2 |
| 20260906032530 | 87 | 215 | 0.0 | 1.0 | 0.00 | 0.00 | 0.00 | 63 | 1013.0 |
| 20260906032025 | 87 | 257 | 2.0 | 3.0 | 0.00 | 0.00 | 0.00 | 63 | 1013.2 |
| 20260906031520 | 87 | 205 | 2.0 | 2.0 | 0.00 | 0.00 | 0.00 | 62 | 1013.0 |
| 20260906031016 | 87 | 203 | 1.0 | 1.0 | 0.00 | 0.00 | 0.00 | 61 | 1012.9 |
| 20260906030515 | 86 | 217 | 1.0 | 1.0 | 0.00 | 0.00 | 0.00 | 61 | 1012.8 |
| 20260906030015 | 87 | 205 | 1.0 | 1.0 | 0.00 | 0.00 | 0.00 | 60 | 1012.8 |
| 20260906025514 | 87 | 217 | 0.0 | 1.0 | 0.00 | 0.00 | 0.00 | 59 | 1012.4 |
| 20260906025012 | 88 | 210 | 1.0 | 1.0 | 0.00 | 0.00 | 0.00 | 59 | 1012.4 |
| 20260906024508 | 88 | 222 | 0.0 | 1.0 | 0.00 | 0.00 | 0.00 | 58 | 1012.2 |
| 20260906024002 | 88 | 218 | 1.0 | 1.0 | 0.00 | 0.00 | 0.00 | 58 | 1012.2 |
| 20260906023458 | 87 | 216 | 0.0 | 1.0 | 0.00 | 0.00 | 0.00 | 58 | 1011.7 |
| 20260906022953 | 88 | 205 | 0.0 | 1.0 | 0.00 | 0.00 | 0.00 | 57 | 1012.0 |
| 20260906022448 | 88 | 255 | 1.0 | 3.0 | 0.00 | 0.00 | 0.00 | 57 | 1012.0 |
| 20260906021943 | 87 | 217 | 1.0 | 1.0 | 0.00 | 0.00 | 0.00 | 57 | 1011.6 |
| 20260906021438 | 88 | 225 | 1.0 | 1.0 | 0.00 | 0.00 | 0.00 | 57 | 1011.7 |
| 20260906020933 | 87 | 211 | 2.0 | 2.0 | 0.00 | 0.00 | 0.00 | 57 | 1011.5 |
| 20260906020427 | 87 | 222 | 0.0 | 1.0 | 0.00 | 0.00 | 0.00 | 57 | 1011.5 |
| 20260906015927 | 87 | 238 | 1.0 | 2.0 | 0.00 | 0.00 | 0.00 | 57 | 1011.3 |
| 20260906015421 | 87 | 218 | 2.0 | 2.0 | 0.00 | 0.00 | 0.00 | 56 | 1011.5 |
| 20260906014921 | 85 | 221 | 3.0 | 5.0 | 0.00 | 0.00 | 0.00 | 57 | 1011.3 |
| 20260906014420 | 85 | 202 | 0.0 | 0.0 | 0.00 | 0.00 | 0.00 | 58 | 1011.4 |
| 20260906013917 | 86 | 202 | 0.0 | 0.0 | 0.00 | 0.00 | 0.00 | 57 | 1011.1 |
| 20260906013412 | 87 | 201 | 0.0 | 0.0 | 0.00 | 0.00 | 0.00 | 58 | 1011.3 |
| 20260906012908 | 88 | 201 | 0.0 | 0.0 | 0.00 | 0.00 | 0.00 | 54 | 1011.1 |
| 20260906012402 | 88 | 202 | 1.0 | 1.0 | 0.00 | 0.00 | 0.00 | 54 | 1010.8 |
| 20260906011901 | 89 | 203 | 0.0 | 1.0 | 0.00 | 0.00 | 0.00 | 52 | 1011.2 |
| 20260906011356 | 89 | 202 | 0.0 | 1.0 | 0.00 | 0.00 | 0.00 | 51 | 1011.1 |
| 20260906010852 | 90 | 202 | 1.0 | 1.0 | 0.00 | 0.00 | 0.00 | 50 | 1011.3 |
| 20260906010348 | 90 | 213 | 0.0 | 1.0 | 0.00 | 0.00 | 0.00 | 50 | 1010.8 |
| 20260906005844 | 91 | 215 | 0.0 | 1.0 | 0.00 | 0.00 | 0.00 | 49 | 1010.8 |
| 20260906005343 | 91 | 212 | 1.0 | 1.0 | 0.00 | 0.00 | 0.00 | 48 | 1010.9 |
| 20260906004841 | 91 | 205 | 0.0 | 1.0 | 0.00 | 0.00 | 0.00 | 47 | 1010.7 |
| 20260906004336 | 92 | 212 | 1.0 | 1.0 | 0.00 | 0.00 | 0.00 | 46 | 1010.8 |
| 20260906003831 | 92 | 263 | 1.0 | 1.0 | 0.00 | 0.00 | 0.00 | 45 | 1010.9 |
| 20260906003327 | 92 | 212 | 1.0 | 1.0 | 0.00 | 0.00 | 0.00 | 44 | 1010.8 |
| 20260906002822 | 93 | 224 | 0.0 | 1.0 | 0.00 | 0.00 | 0.00 | 44 | 1010.8 |
| 20260906002321 | 93 | 220 | 1.0 | 1.0 | 0.00 | 0.00 | 0.00 | 43 | 1010.7 |
| 20260906001818 | 94 | 311 | 0.0 | 2.0 | 0.00 | 0.00 | 0.00 | 42 | 1010.9 |
| 20260906001312 | 94 | 205 | 0.0 | 1.0 | 0.00 | 0.00 | 0.00 | 41 | 1010.8 |
| 20260906000807 | 94 | 215 | 1.0 | 1.0 | 0.00 | 0.00 | 0.00 | 41 | 1010.7 |
| 20260906000303 | 94 | 216 | 1.0 | 2.0 | 0.00 | 0.00 | 0.00 | 41 | 1010.6 |
| 20260905235757 | 94 | 226 | 3.0 | 3.0 | 0.00 | 0.00 | 0.00 | 40 | 1010.9 |
| 20260905235256 | 94 | 213 | 1.0 | 1.0 | 0.00 | 0.00 | 0.00 | 40 | 1010.7 |
| 20260905234752 | 95 | 212 | 1.0 | 1.0 | 0.00 | 0.00 | 0.00 | 39 | 1010.9 |
| 20260905234247 | 95 | 205 | 1.0 | 1.0 | 0.00 | 0.00 | 0.00 | 39 | 1010.9 |
| 20260905233743 | 95 | 281 | 2.0 | 2.0 | 0.00 | 0.00 | 0.00 | 40 | 1010.7 |
| 20260905233242 | 95 | 206 | 1.0 | 1.0 | 0.00 | 0.00 | 0.00 | 40 | 1010.8 |
| 20260905232742 | 95 | 224 | 0.0 | 1.0 | 0.00 | 0.00 | 0.00 | 41 | 1010.8 |
| 20260905232238 | 95 | 227 | 1.0 | 2.0 | 0.00 | 0.00 | 0.00 | 41 | 1010.8 |
| 20260905231734 | 95 | 234 | 1.0 | 2.0 | 0.00 | 0.00 | 0.00 | 41 | 1010.7 |
| 20260905231229 | 96 | 216 | 1.0 | 1.0 | 0.00 | 0.00 | 0.00 | 42 | 1010.6 |
| 20260905230725 | 96 | 184 | 1.0 | 2.0 | 0.00 | 0.00 | 0.00 | 41 | 1011.1 |
| 20260905230222 | 95 | 210 | 1.0 | 1.0 | 0.00 | 0.00 | 0.00 | 41 | 1010.9 |
| 20260905225722 | 96 | 220 | 0.0 | 0.0 | 0.00 | 0.00 | 0.00 | 42 | 1010.7 |
| 20260905225217 | 96 | 220 | 0.0 | 1.0 | 0.00 | 0.00 | 0.00 | 40 | 1010.7 |
| 20260905224716 | 97 | 241 | 2.0 | 2.0 | 0.00 | 0.00 | 0.00 | 40 | 1010.9 |
| 20260905224212 | 96 | 227 | 2.0 | 2.0 | 0.00 | 0.00 | 0.00 | 39 | 1010.8 |
| 20260905223708 | 95 | 231 | 3.0 | 5.0 | 0.00 | 0.00 | 0.00 | 41 | 1010.9 |
| 20260905223205 | 96 | 234 | 2.0 | 3.0 | 0.00 | 0.00 | 0.00 | 41 | 1011.1 |
| 20260905222700 | 96 | 213 | 1.0 | 2.0 | 0.00 | 0.00 | 0.00 | 42 | 1010.8 |